Regional Weather Roundup
Issued by NWS

Home | Current Version | Previous Version | Graphics & Text | Print | Product List | Glossary On
Versions: 1 2 3 4 5 6 7 8 9 10 11 12 13 14 15 16 17 18 19 20 21 22 23 24 25 26 27 28 29 30 31 32 33 34 35 36 37 38 39 40 41 42 43 44 45 46 47 48 49 50
158
ASUS43 KFSD 250210
RWRSD

WEATHER ROUNDUP FOR SOUTH DAKOTA
NATIONAL WEATHER SERVICE SIOUX FALLS SD
900 PM CDT SAT JUN 24 2017

NOTE: "FAIR" INDICATES FEW OR NO CLOUDS BELOW 12,000 FEET WITH NO
SIGNIFICANT WEATHER AND/OR OBSTRUCTIONS TO VISIBILITY.


SDZ001>005-009-010-012>017-250300-
NORTHWEST AND NORTH CENTRAL SOUTH DAKOTA

CITY           SKY/WX    TMP DP  RH WIND       PRES   REMARKS
BUFFALO          N/A     65  31  28 NE16      30.23R
FAITH            N/A     63  34  33 N16       30.27R
MOBRIDGE       CLEAR     62  38  40 N13       30.21S
$$

SDZ012>016-024>037-041>051-057-063-072>074-250300-
SOUTHWEST AND SOUTH CENTRAL SOUTH DAKOTA

CITY           SKY/WX    TMP DP  RH WIND       PRES   REMARKS
RAPID CTY ARPT MOCLDY    68  30  24 N16       30.27R
PIERRE         CLEAR     62  39  42 N13       30.22R
CUSTER         CLEAR     60  26  27 N9        30.35R
PHILIP         CLEAR     68  30  24 N13       30.23R
PINE RIDGE     CLEAR     67  37  33 NE6       30.27R
SPEARFISH      FAIR      63  32  31 N6        30.32R
WINNER         FAIR      68  31  25 N12       30.22R
$$

SDZ004>011-016>023-039-040-250300-
NORTHEAST SOUTH DAKOTA

CITY           SKY/WX    TMP DP  RH WIND       PRES   REMARKS
ABERDEEN       CLOUDY    59  44  57 NW18      30.21R
WATERTOWN      CLOUDY    57  44  62 NW18G25   30.17R
BROOKINGS      CLOUDY    59  42  53 N15G21    30.17R
SISSETON         N/A     59  46  62 NW20      30.14S
$$

SDZ017-020-022-023-036>040-048>070-250300-
SOUTHEAST SOUTH DAKOTA

CITY           SKY/WX    TMP DP  RH WIND       PRES   REMARKS
SIOUX FALLS    PTCLDY    61  42  49 N12       30.16R
HURON          CLEAR     60  43  53 N15G24    30.20R
CHAMBERLAIN    CLEAR     67  39  36 N15       30.22R
MITCHELL       CLEAR     65  38  36 N10       30.19R
YANKTON        CLEAR     65  42  43 N9        30.17R
$$

ABBREVIATIONS USED IN REMARKS
   TC - TEMPERATURE IN CELSIUS
  WCI - WIND CHILL INDEX
   HX - HEAT INDEX
  VSB - VISIBILITY





USA.gov is the U.S. government's official web portal to all federal, state and local government web resources and services.